TimeCST,TemperatureF,Dew PointF,Humidity,Sea Level PressureIn,VisibilityMPH,Wind Direction,Wind SpeedMPH,Gust SpeedMPH,PrecipitationIn,Events,Conditions,WindDirDegrees,DateUTC
12:53 AM,64.9,62.1,90,29.87,10.0,South,8.1,-,N/A,,Mostly Cloudy,190,2012-12-09 06:53:00
1:04 AM,64.4,62.6,94,29.87,10.0,South,9.2,-,N/A,,Scattered Clouds,190,2012-12-09 07:04:00
1:42 AM,64.4,62.6,94,29.87,10.0,SSW,8.1,-,N/A,,Mostly Cloudy,200,2012-12-09 07:42:00
1:53 AM,64.9,62.1,90,29.87,10.0,South,6.9,-,N/A,,Overcast,190,2012-12-09 07:53:00
2:31 AM,64.4,62.6,94,29.87,10.0,South,6.9,-,N/A,,Mostly Cloudy,190,2012-12-09 08:31:00
2:50 AM,64.4,62.6,94,29.87,10.0,SSW,9.2,-,N/A,,Overcast,200,2012-12-09 08:50:00
2:53 AM,64.9,62.1,90,29.87,10.0,SSW,6.9,-,N/A,,Mostly Cloudy,210,2012-12-09 08:53:00
3:03 AM,64.4,62.6,94,29.87,10.0,SSW,6.9,-,N/A,,Overcast,200,2012-12-09 09:03:00
3:14 AM,64.4,62.6,94,29.87,10.0,SSW,5.8,-,N/A,,Mostly Cloudy,200,2012-12-09 09:14:00
3:53 AM,64.9,62.1,90,29.87,10.0,SSW,9.2,-,N/A,,Overcast,200,2012-12-09 09:53:00
4:05 AM,64.4,62.6,94,29.87,10.0,SSW,11.5,-,N/A,,Overcast,200,2012-12-09 10:05:00
4:53 AM,66.0,63.0,90,29.87,10.0,SSW,9.2,19.6,N/A,,Overcast,210,2012-12-09 10:53:00
5:53 AM,66.0,63.0,90,29.88,10.0,SSW,8.1,19.6,N/A,,Overcast,210,2012-12-09 11:53:00
6:25 AM,66.2,62.6,88,29.89,10.0,SSW,8.1,-,N/A,,Overcast,200,2012-12-09 12:25:00
6:53 AM,64.9,62.1,90,29.88,10.0,SSW,13.8,20.7,N/A,,Overcast,200,2012-12-09 12:53:00
7:39 AM,64.4,62.6,94,29.90,10.0,South,10.4,-,N/A,,Overcast,190,2012-12-09 13:39:00
7:53 AM,64.9,62.1,90,29.89,10.0,SSW,12.7,18.4,N/A,,Overcast,200,2012-12-09 13:53:00
8:21 AM,64.4,62.6,94,29.91,10.0,SSW,10.4,-,N/A,,Overcast,200,2012-12-09 14:21:00
8:53 AM,64.9,62.1,90,29.91,10.0,SSW,11.5,20.7,N/A,,Overcast,210,2012-12-09 14:53:00
9:53 AM,66.9,62.1,84,29.91,10.0,SSW,13.8,23.0,N/A,,Overcast,210,2012-12-09 15:53:00
10:08 AM,68.0,62.6,83,29.91,10.0,SSW,8.1,23.0,N/A,,Mostly Cloudy,200,2012-12-09 16:08:00
10:41 AM,69.8,62.6,78,29.89,10.0,SSW,10.4,25.3,N/A,,Scattered Clouds,200,2012-12-09 16:41:00
10:53 AM,69.1,63.0,81,29.89,10.0,South,9.2,-,N/A,,Scattered Clouds,190,2012-12-09 16:53:00
11:26 AM,71.6,62.6,73,29.88,10.0,SSW,11.5,21.9,N/A,,Mostly Cloudy,200,2012-12-09 17:26:00
11:41 AM,69.8,62.6,78,29.87,10.0,SSW,11.5,20.7,N/A,,Mostly Cloudy,200,2012-12-09 17:41:00
11:53 AM,71.1,62.1,73,29.86,10.0,SSW,13.8,21.9,N/A,,Scattered Clouds,210,2012-12-09 17:53:00
12:17 PM,69.8,62.6,78,29.86,10.0,SSW,8.1,20.7,N/A,,Mostly Cloudy,200,2012-12-09 18:17:00
12:41 PM,69.8,62.6,78,29.85,10.0,SSW,11.5,-,N/A,,Overcast,200,2012-12-09 18:41:00
12:53 PM,71.1,63.0,75,29.83,10.0,South,10.4,18.4,N/A,,Overcast,190,2012-12-09 18:53:00
1:22 PM,71.6,62.6,73,29.82,10.0,South,11.5,19.6,N/A,,Mostly Cloudy,190,2012-12-09 19:22:00
1:53 PM,72.0,63.0,73,29.81,10.0,South,10.4,18.4,N/A,,Mostly Cloudy,190,2012-12-09 19:53:00
2:53 PM,73.0,64.0,73,29.80,10.0,South,10.4,-,N/A,,Mostly Cloudy,170,2012-12-09 20:53:00
3:53 PM,72.0,64.0,76,29.80,10.0,South,5.8,-,N/A,,Scattered Clouds,170,2012-12-09 21:53:00
4:53 PM,70.0,64.9,84,29.80,10.0,South,9.2,-,N/A,,Clear,180,2012-12-09 22:53:00
5:53 PM,69.1,64.9,87,29.79,10.0,SSE,8.1,-,N/A,,Clear,160,2012-12-09 23:53:00
6:53 PM,68.0,64.9,90,29.79,10.0,South,5.8,-,0.00,Rain,Light Rain,170,2012-12-10 00:53:00
7:53 PM,66.9,64.9,93,29.77,10.0,SSE,5.8,-,0.00,,Clear,150,2012-12-10 01:53:00
8:53 PM,66.9,64.9,93,29.78,8.0,South,3.5,-,N/A,,Clear,180,2012-12-10 02:53:00
9:53 PM,68.0,66.0,93,29.75,5.0,South,10.4,18.4,0.03,Rain,Rain,190,2012-12-10 03:53:00
10:26 PM,68.0,66.2,94,29.78,8.0,SW,12.7,-,0.02,Rain-Thunderstorm,Light Rain,220,2012-12-10 04:26:00
10:37 PM,68.0,66.2,94,29.81,7.0,West,11.5,17.3,0.02,Rain-Thunderstorm,Light Rain,260,2012-12-10 04:37:00
10:46 PM,64.4,60.8,88,29.81,10.0,WNW,5.8,-,0.02,Thunderstorm,Overcast,300,2012-12-10 04:46:00
10:53 PM,63.0,61.0,93,29.81,10.0,Calm,Calm,-,0.02,Rain-Thunderstorm,Light Rain,0,2012-12-10 04:53:00
11:03 PM,62.6,60.8,94,29.81,7.0,NNW,4.6,-,0.02,Rain,Light Rain,330,2012-12-10 05:03:00
11:13 PM,62.6,60.8,94,29.81,6.0,NNE,6.9,-,0.03,Rain-Thunderstorm,Rain,20,2012-12-10 05:13:00
11:21 PM,62.6,59.0,88,29.81,5.0,North,6.9,-,0.06,Rain-Thunderstorm,Rain,360,2012-12-10 05:21:00
11:31 PM,60.8,59.0,94,29.81,6.0,NE,4.6,-,0.07,Rain,Light Rain,40,2012-12-10 05:31:00
11:53 PM,60.1,57.0,90,29.82,7.0,NE,8.1,-,0.08,Rain,Light Rain,40,2012-12-10 05:53:00